Voltar ao catálogo

STARLINK-11230

AtivoComunicaçõesVLEO
NORAD 61053·PAYLOAD·🇺🇸 United States

Lançado Sep 13, 2024 de Vandenberg Space Force Base

Loading…

Próximas Passagens (próximas 24 horas)

TLE

AtualizadoSource: CelesTrak SupGP

Época: Sep 15, 2026, 02:45 UTC

1 61053C 24164D   26258.11506944  .00032150  00000+0  26468-3 0  2582
2 61053  53.1558  97.3189 0000953  80.7332 234.4324 15.69707433    19

Acompanhe STARLINK-11230 em tempo real com AllMySat

Download on the App Store